ATLAS 5 CENTAUR DEB, 44647

Orbit data source: Space-Track

ATLAS 5 CENTAUR DEB, 44647 is space debris in HEO originally from a launch on Wed, 17 Oct 2018 UTC launched from the Air Force Eastern Test Range (AFETR). Debris objects in space refer to the collection of defunct objects orbiting the Earth. Examples of debris include non-operational satellites, rocket bodies, and fragments generated from explosions, collisions, or faulty payload assembly.

Loading next visibility...
Identifier
44647, 2018-079H
Orbit
HEO
Country
Flag of USUS
Related business
Flag of USUnited Launch Alliance/Lockheed Martin (US)
Manufacturer
ULA Decatur
Mission
Spacecraft
Bus & Motor
Unknown
Mass
Unknown
Launch date (UTC)
2018-10-17 (8 years ago)
Launch vehicle
Unknown
Launch site
Air Force Eastern Test Range (AFETR)
Object type
Payload
Rocket body
Debris
Shape & HBR
Unknown shape, 1.1 m
Radar Cross Section
RCS unknown

Expand to show TLE details & history
Last TLE update: 1 day ago

TLE from 1 day ago
0 ATLAS 5 CENTAUR DEB
1 44647U 18079H   26124.27656418 -.00000137  00000-0  00000+0 0  9995
2 44647  13.4204  24.6569 4628317 337.2489   7.6622  1.88056857 51759
Epoch: 2026-05-04T06:38Z
TLE epoch observation values (Epoch: 2026-05-04T06:38:15.145Z)
Latitude
-0.00001°
Longitude
62.88941°
Altitude
8,884.498 km
Speed
6.153 km/s
True Right ascension
01h 38m 28s
True Declination
0° 00' 00"
Sunlit
Object was in daylight at epoch
Visualization orbit readout
Latitude
Unknown
Longitude
Unknown
Altitude
Unknown
Speed
Unknown
Apparent Right ascension
Unknown
Apparent Declination
Unknown
Sunlit
N/A
Visualization observer readout
Local Sidereal Time
18:45:29
Azimuth
Unknown
Elevation
Unknown
Doppler factor
Unknown
Orbital elements
Apogee altitude
34,182.353 km
Perigee altitude
8,516.132 km
Semi-major axis
27,727.38 km
Eccentricity
0.46283
Inclination
13.4204°
RAAN
24.6569°
Arg. of periapsis
337.2489°
True anomaly
23.13499°
Mean anomaly
7.6622°
Eccentric anomaly
14.14074°
Mean motion
0.47009 °/min
Orbital period
765.81 mins
BSTAR
0
Loading maneuver chart data...
Computing Atmospheric mass density...

Documentation

Showing up to 5 results
|